Weather History for Ithaca, NY

Change the Weather History Date:

Thursday, October 6, 2011

  Actual Average Record
Temperature  
Mean Temperature 46 °F -  
Max Temperature 59 °F 62 °F 88 °F (1951)
Min Temperature 32 °F 40 °F 22 °F (1984)
Degree Days  
Heating Degree Days 20    
Moisture  
Dew Point 36 °F    
Average Humidity 76    
Maximum Humidity 97    
Minimum Humidity 39    
Precipitation  
Precipitation 0.00 in - - ()
Sea Level Pressure  
Sea Level Pressure 30.40 in    
Wind  
Wind Speed 4 mph (NE)    
Max Wind Speed 8 mph    
Max Gust Speed -    
Visibility 10 miles    
Events      
Averages and records for this station are not official NWS values.
T = Trace of Precipitation, MM = Missing Value Source: NWS Daily Summary

Daily Weather History Graph

Daily Weather History Graph

Search for Another Location

Airport:

Trip Planner

Search our weather history database for the weather conditions in past years. The results will help you decide how hot, cold, wet, or windy it might be!

Date:

Astronomy

Oct. 06, 2011 Rise Set
Actual Time 7:08 AM EDT 6:39 PM EDT
Civil Twilight 6:40 AM EDT 7:07 PM EDT
Nautical Twilight 6:07 AM EDT 7:39 PM EDT
Astronomical Twilight 5:34 AM EDT 8:12 PM EDT
Moon 3:56 PM EDT (10/6) 1:48 AM EDT (10/6)
Length of Visible Light 12h 27m
Length of Day
11h 30m
Waxing Gibbous, 75% of the Moon is Illuminated
Oct 6
Waxing Gibbous
Oct 11
Full
Oct 19
Last Quarter
Oct 26
New
Nov 2
First Quarter

Hourly Weather History & Observations

Time (EDT) Temp. Windchill Dew Point Humidity Pressure Visibility Wind Dir Wind Speed Gust Speed Precip Events Conditions
12:56 AM 36.9 °F - 36.0 °F 97% 30.39 in 10.0 mi Calm Calm - N/A   Clear
1:56 AM 36.0 °F 33.3 °F 34.9 °F 96% 30.40 in 10.0 mi ENE 3.5 mph - N/A   Clear
2:56 AM 34.9 °F 32.0 °F 34.0 °F 97% 30.39 in 10.0 mi East 3.5 mph - N/A   Clear
3:56 AM 34.9 °F 29.9 °F 34.0 °F 97% 30.40 in 10.0 mi ENE 5.8 mph - N/A   Clear
4:56 AM 34.0 °F 29.8 °F 32.9 °F 96% 30.40 in 10.0 mi ENE 4.6 mph - N/A   Clear
5:56 AM 34.0 °F 29.8 °F 32.9 °F 96% 30.41 in 10.0 mi East 4.6 mph - N/A   Clear
6:28 AM 33.8 °F 28.6 °F 32.0 °F 93% 30.39 in 10.0 mi ENE 5.8 mph - N/A   Clear
6:56 AM 32.9 °F 27.5 °F 32.0 °F 96% 30.42 in 10.0 mi East 5.8 mph - N/A   Clear
8:56 AM 39.9 °F 36.7 °F 34.9 °F 82% 30.44 in 10.0 mi East 4.6 mph - N/A   Clear
9:56 AM 46.9 °F - 36.0 °F 66% 30.44 in 10.0 mi Calm Calm - N/A   Clear
10:56 AM 54.0 °F - 36.0 °F 51% 30.43 in 10.0 mi NW 4.6 mph - N/A   Clear
11:56 AM 55.9 °F - 32.9 °F 42% 30.43 in 10.0 mi NW 8.1 mph - N/A   Clear
12:56 PM 56.8 °F - 34.0 °F 42% 30.41 in 10.0 mi Variable 5.8 mph - N/A   Clear
1:56 PM 59.0 °F - 34.0 °F 39% 30.39 in 10.0 mi WNW 8.1 mph - N/A   Clear
3:56 PM 59.0 °F - 34.9 °F 40% 30.37 in 10.0 mi NNW 8.1 mph - N/A   Clear
4:56 PM 57.2 °F - 35.6 °F 44% 30.35 in 10.0 mi North 8.1 mph - N/A   Clear
5:56 PM 55.9 °F - 36.9 °F 49% 30.37 in 10.0 mi Calm Calm - N/A   Clear
6:56 PM 46.9 °F - 41.0 °F 80% 30.39 in 10.0 mi North 3.5 mph - N/A   Clear
7:56 PM 43.9 °F 41.3 °F 41.0 °F 90% 30.40 in 10.0 mi NNE 4.6 mph - N/A   Clear
9:56 PM 39.9 °F - 38.8 °F 96% 30.41 in 10.0 mi Calm Calm - N/A   Clear
10:56 PM 39.9 °F - 38.8 °F 96% 30.40 in 10.0 mi Calm Calm - N/A   Clear
11:56 PM 39.9 °F 37.8 °F 38.8 °F 96% 30.41 in 10.0 mi East 3.5 mph - N/A   Clear